Wind_Speed
18 18 18 19 19 20 20 20 20 21 21 21 21 20 20 20 20 20 20 20 19 19 19 19 20 20 20 20 20 20 20 20 19 19 19 19 19 19 19 20 20 19 19
19 19 19 19 20 21 21 21 21 22 22 22 22 22 22 22 22 21 20 21 21 20 20 20 21 21 21 21 21 20 20 20 20 19 19 20 20 20 20 19 19 19 20
18 18 19 20 20 20 20 21 21 21 23 23 24 24 24 24 23 22 22 22 23 23 22 22 23 23 23 22 22 22 21 21 21 21 20 20 20 20 20 20 20 19 20
19 20 20 20 20 20 21 21 22 22 23 23 24 25 25 25 24 24 24 24 24 24 25 25 25 25 25 24 24 24 23 23 23 22 22 21 21 21 21 21 21 22 21
20 20 20 20 20 21 21 22 22 22 22 22 23 23 24 24 25 25 26 25 25 25 25 26 26 26 26 25 25 25 24 23 24 24 24 23 22 22 22 22 21 21 21
20 21 21 21 21 22 22 22 22 22 22 22 22 23 23 24 24 25 26 26 26 26 27 27 27 26 26 25 25 25 24 24 23 23 23 24 24 23 22 21 22 21 22
21 22 22 21 22 22 22 22 22 22 23 23 23 23 24 24 24 24 25 26 26 27 27 27 28 27 26 26 26 26 25 25 25 24 24 25 25 25 24 23 23 24 23
23 23 22 22 22 23 23 23 23 24 24 25 25 25 25 26 26 25 25 25 26 26 27 27 27 28 28 27 27 26 26 26 26 26 26 26 25 26 25 25 25 25 25
23 23 23 24 24 25 25 25 26 25 25 26 26 26 26 26 26 26 26 26 26 26 26 27 27 27 28 27 27 27 26 27 27 27 27 27 27 27 26 26 26 26 25
24 24 25 25 26 26 26 27 28 28 28 28 28 28 28 27 27 27 27 27 27 27 27 27 28 28 28 28 28 28 28 28 28 28 27 28 28 27 27 27 27 27 27
25 25 26 26 26 27 28 29 29 29 30 29 29 29 29 29 29 29 29 29 29 29 28 28 28 28 28 28 28 28 28 29 29 29 29 29 29 28 27 27 28 28 28
26 26 26 27 27 28 28 29 29 30 31 31 30 30 30 30 30 30 31 30 30 30 29 29 29 29 28 28 28 28 28 29 29 29 29 28 29 29 28 28 28 28 29
28 27 27 28 28 29 29 29 30 31 31 31 30 30 30 30 30 31 30 30 30 30 30 30 29 29 29 28 28 28 28 28 29 29 29 29 29 29 28 28 28 28 28
29 29 29 30 30 30 30 30 30 31 31 31 30 30 30 31 30 31 31 31 31 31 30 30 30 30 30 29 29 29 29 28 28 28 28 28 28 28 28 29 29 28 27
31 31 31 31 31 30 30 30 31 31 31 32 32 32 31 32 31 31 31 31 30 30 30 30 30 30 29 29 29 29 29 29 28 28 28 28 29 29 29 29 29 30 29
32 32 32 31 31 31 31 31 31 31 32 31 31 31 31 30 30 30 29 30 30 30 29 29 29 29 28 28 28 28 29 29 28 28 28 28 28 29 29 29 29 29 30
33 33 32 31 31 31 31 31 31 32 32 32 31 31 31 31 30 29 29 29 30 29 29 28 28 28 28 28 28 28 28 28 28 28 28 28 28 29 29 30 30 30 30
33 32 31 31 31 31 32 32 32 32 32 32 32 31 31 31 31 30 29 29 30 30 29 29 29 29 29 28 28 27 28 28 28 28 28 28 29 29 30 31 31 31 31
33 33 33 33 33 33 33 33 32 32 31 31 32 31 31 31 30 30 30 30 30 31 31 31 30 29 29 29 28 28 28 28 28 29 29 29 30 30 31 31 32 32 32
33 34 34 34 34 33 33 33 32 32 32 32 32 32 31 31 31 31 31 31 30 30 30 30 29 29 28 28 28 28 29 30 30 30 30 30 30 31 32 32 32 33 33
34 34 34 34 34 34 33 33 33 33 33 33 33 32 32 32 31 31 32 31 29 29 29 29 29 29 29 29 29 30 30 30 30 30 30 30 31 31 32 33 34 34 34
34 34 34 34 34 34 34 34 34 34 33 33 33 32 31 31 30 29 29 30 30 29 29 29 29 30 30 29 29 30 30 30 30 30 31 31 31 31 32 32 33 33 34
35 35 35 35 35 35 35 35 35 34 33 33 32 31 31 31 30 30 30 29 29 29 30 30 30 30 30 30 30 30 30 31 31 31 31 31 31 31 31 32 32 33 33
36 36 36 36 36 36 35 35 35 34 33 32 32 32 31 31 31 30 29 29 29 29 29 30 30 30 30 30 31 31 30 31 32 32 31 31 32 31 31 31 32 32 33
35 35 35 36 35 35 35 34 34 33 32 32 32 32 31 31 30 30 29 29 29 29 29 30 30 30 30 31 31 31 32 32 32 32 32 33 32 32 32 32 32 33 33
32 32 32 32 32 32 32 32 32 31 31 31 31 31 31 30 30 30 29 29 30 30 30 29 30 30 30 31 32 32 32 32 32 32 32 33 33 32 32 32 32 32 32
Wind_Direction
272 273 272 271 273 276 278 277 276 274 276 275 275 274 275 276 274 273 272 272 274 276 277 280 281 281 280 281 280 279 279 281 280 278 276 273 272 273 272 271 270 267 265
273 275 274 274 276 277 276 276 275 274 273 271 273 275 277 277 275 274 273 274 275 274 275 278 280 281 280 279 278 278 278 279 279 278 273 272 270 270 270 270 270 266 264
275 274 274 275 276 277 277 277 277 276 272 271 272 274 275 275 275 274 274 275 274 275 275 277 278 279 281 280 277 276 276 277 278 275 274 271 270 270 271 270 269 267 266
276 274 275 277 278 280 280 279 278 276 274 274 274 275 274 273 273 273 274 275 275 275 276 277 278 278 279 278 277 275 275 275 274 272 272 273 273 273 273 272 269 267 266
275 275 276 277 278 279 280 281 279 277 275 275 276 277 276 276 273 273 273 273 273 275 277 277 278 278 278 278 275 274 274 274 273 272 271 272 273 274 274 273 270 266 265
275 276 276 275 276 278 278 279 279 278 276 276 276 278 277 275 273 273 273 274 274 275 276 276 277 276 276 277 277 274 273 272 273 274 273 272 272 272 273 274 274 269 267
275 275 277 279 279 280 280 281 279 278 277 278 278 278 277 275 274 274 274 274 274 274 275 275 275 274 276 277 277 275 273 271 270 272 273 271 270 270 270 271 270 269 270
275 276 277 280 281 282 282 282 283 280 279 279 279 278 277 275 274 275 274 274 274 275 275 275 275 275 276 276 276 276 276 275 273 271 270 272 271 269 270 269 269 267 268
275 276 277 279 280 281 281 283 283 281 281 280 280 278 278 276 275 274 274 274 274 275 276 277 279 278 278 277 276 276 276 274 273 272 272 272 272 270 268 267 267 267 268
273 275 277 279 280 281 282 284 284 282 281 280 279 278 277 275 274 273 273 274 274 275 275 276 278 278 279 278 276 276 275 273 273 272 270 269 270 269 267 267 266 266 266
273 275 278 280 281 282 283 284 285 283 281 280 279 278 276 275 274 273 273 272 273 274 275 275 276 276 277 277 276 276 275 274 272 271 270 268 268 268 268 267 265 265 266
275 276 277 279 281 283 284 284 285 285 284 283 281 278 277 276 274 273 273 273 272 273 274 275 275 276 276 275 275 275 274 274 272 271 270 269 269 268 267 267 266 266 266
273 275 276 279 282 283 285 286 287 289 287 286 283 279 278 277 275 273 273 274 273 273 274 274 275 276 276 275 274 274 274 274 273 270 270 270 270 269 268 267 267 267 267
272 275 278 280 282 284 286 288 290 290 288 286 284 281 279 278 277 274 274 274 274 273 273 273 274 274 273 273 272 273 274 273 272 271 269 268 268 268 268 269 269 268 268
272 275 278 280 281 283 284 287 290 291 289 287 284 282 281 280 278 275 274 274 274 273 272 272 273 272 273 271 270 272 273 273 271 271 270 268 266 266 268 269 269 269 269
271 275 277 279 280 282 284 286 288 289 289 289 287 284 281 280 278 275 275 274 274 274 274 274 273 272 271 271 272 272 273 273 271 271 270 268 268 269 269 268 269 270 271
271 273 275 277 279 282 284 285 287 288 288 288 288 285 283 280 278 275 275 275 275 275 275 274 272 272 271 272 272 273 273 273 272 272 271 270 270 270 270 269 270 270 271
270 272 274 276 278 281 283 285 287 287 286 286 286 285 283 282 280 276 275 276 276 275 274 272 271 270 270 270 271 271 272 274 273 273 274 274 273 272 271 270 270 270 271
271 273 275 277 279 280 282 284 285 285 286 286 285 284 283 282 281 278 276 275 274 273 273 273 271 269 270 269 270 272 274 275 275 275 275 275 275 274 274 272 271 271 271
273 275 276 277 279 280 281 281 282 283 284 285 283 282 282 280 278 277 275 274 273 272 271 272 270 270 270 270 270 272 274 275 275 276 276 276 276 276 275 274 273 273 273
275 276 277 278 278 279 280 280 280 281 283 284 283 281 279 278 277 276 275 274 272 271 270 271 271 270 269 269 270 271 273 275 275 277 277 277 278 277 276 275 274 273 273
276 278 277 278 278 279 280 279 279 280 281 281 282 281 279 278 277 275 273 273 273 272 271 271 271 271 270 270 271 271 272 274 275 277 278 279 278 278 278 277 276 275 274
276 277 277 277 276 278 280 280 280 279 279 279 279 278 278 278 276 275 274 273 274 273 272 271 270 270 270 270 270 271 272 273 275 277 278 279 279 279 278 278 277 277 275
276 276 275 276 276 278 279 279 279 278 276 276 277 277 277 276 274 273 273 274 274 273 274 273 271 270 271 271 272 273 272 273 275 276 278 279 280 280 280 280 280 278 277
276 275 275 275 277 278 278 280 279 278 277 276 275 275 276 275 273 272 271 272 273 273 274 273 272 272 272 272 273 273 274 275 277 278 279 279 280 281 281 282 281 278 276
276 275 275 276 276 277 278 279 277 276 275 275 275 275 275 274 272 271 270 272 273 273 274 273 272 273 274 274 275 276 276 277 277 278 279 279 280 280 281 282 282 279 276
Height
5847 5846 5846 5845 5845 5844 5843 5843 5842 5841 5841 5841 5840 5840 5839 5839 5838 5837 5837 5836 5836 5835 5834 5833 5833 5832 5831 5830 5829 5829 5828 5827 5826 5826 5825 5825 5825 5825 5825 5825 5825 5825 5825
5841 5841 5840 5840 5839 5839 5838 5837 5836 5835 5835 5835 5835 5834 5834 5833 5832 5832 5831 5831 5830 5829 5829 5828 5827 5826 5826 5825 5824 5823 5823 5822 5821 5821 5820 5820 5820 5820 5820 5820 5820 5820 5820
5836 5835 5835 5834 5834 5833 5832 5831 5830 5829 5829 5829 5828 5828 5827 5826 5826 5826 5825 5825 5824 5823 5823 5822 5821 5821 5820 5819 5818 5818 5817 5817 5816 5815 5815 5814 5814 5814 5814 5814 5814 5814 5815
5831 5830 5829 5829 5828 5827 5826 5825 5824 5823 5822 5822 5821 5821 5820 5819 5819 5819 5819 5818 5818 5817 5816 5815 5815 5814 5814 5813 5812 5811 5811 5811 5810 5810 5809 5809 5809 5808 5809 5809 5809 5809 5809
5826 5825 5824 5823 5822 5821 5821 5819 5818 5817 5816 5815 5815 5814 5813 5813 5812 5812 5811 5811 5810 5810 5809 5809 5808 5807 5807 5806 5805 5805 5804 5804 5803 5803 5803 5803 5803 5803 5803 5803 5803 5803 5804
5820 5820 5819 5818 5817 5816 5815 5813 5812 5811 5810 5809 5808 5807 5806 5806 5805 5804 5804 5803 5803 5803 5802 5802 5801 5800 5799 5799 5798 5798 5798 5797 5797 5796 5796 5796 5797 5797 5797 5797 5797 5798 5799
5815 5814 5813 5812 5811 5810 5809 5807 5806 5805 5804 5803 5802 5801 5800 5799 5798 5797 5796 5796 5795 5795 5795 5794 5793 5793 5792 5791 5791 5790 5790 5790 5790 5790 5790 5790 5790 5790 5791 5791 5791 5791 5792
5809 5808 5807 5806 5805 5804 5803 5801 5800 5798 5797 5796 5795 5793 5792 5792 5791 5790 5789 5789 5788 5787 5787 5786 5786 5785 5784 5783 5783 5783 5783 5783 5783 5783 5783 5783 5783 5783 5784 5784 5784 5784 5785
5802 5801 5801 5800 5798 5797 5796 5794 5793 5791 5790 5789 5787 5786 5785 5784 5783 5783 5782 5781 5780 5780 5779 5779 5778 5777 5776 5776 5776 5775 5775 5775 5775 5775 5775 5776 5776 5776 5776 5777 5777 5778 5778
5795 5794 5794 5792 5791 5790 5788 5787 5785 5784 5782 5781 5780 5778 5777 5776 5775 5775 5774 5773 5773 5772 5772 5771 5770 5769 5769 5768 5767 5768 5768 5767 5767 5768 5768 5768 5768 5768 5769 5769 5769 5770 5770
5787 5787 5786 5785 5784 5782 5781 5779 5777 5775 5774 5773 5772 5770 5769 5768 5767 5767 5766 5765 5764 5764 5763 5763 5763 5762 5761 5760 5760 5760 5759 5759 5759 5759 5759 5760 5760 5760 5761 5761 5761 5762 5762
5780 5779 5778 5777 5776 5774 5773 5770 5768 5767 5765 5764 5763 5761 5760 5759 5758 5758 5757 5756 5755 5755 5755 5754 5754 5753 5753 5752 5752 5751 5751 5751 5751 5751 5751 5751 5751 5752 5752 5753 5753 5753 5754
5772 5771 5770 5769 5767 5766 5764 5762 5760 5758 5756 5755 5753 5752 5751 5750 5749 5748 5748 5747 5746 5746 5746 5745 5745 5744 5744 5743 5743 5743 5743 5743 5742 5743 5742 5743 5743 5743 5743 5744 5745 5745 5745
5763 5762 5761 5760 5759 5757 5755 5753 5751 5749 5747 5746 5744 5743 5741 5740 5739 5739 5738 5738 5737 5737 5736 5736 5736 5735 5735 5734 5734 5734 5734 5734 5734 5734 5734 5734 5734 5734 5735 5735 5735 5736 5736
5754 5753 5752 5751 5750 5748 5747 5745 5743 5741 5739 5737 5735 5733 5732 5731 5730 5729 5729 5728 5728 5727 5727 5727 5726 5726 5725 5725 5725 5725 5725 5725 5725 5725 5725 5725 5725 5725 5726 5726 5726 5727 5727
5744 5744 5743 5742 5740 5739 5737 5736 5734 5732 5730 5727 5725 5723 5722 5721 5720 5720 5719 5719 5718 5718 5718 5717 5717 5716 5716 5716 5716 5716 5716 5716 5716 5716 5716 5716 5716 5716 5717 5717 5717 5717 5718
5735 5734 5733 5732 5731 5730 5728 5726 5725 5723 5721 5719 5716 5714 5713 5712 5711 5711 5710 5710 5709 5708 5708 5708 5708 5707 5707 5707 5707 5707 5707 5707 5707 5707 5707 5707 5707 5707 5707 5707 5708 5708 5708
5724 5724 5723 5722 5721 5720 5719 5717 5715 5713 5711 5709 5707 5705 5704 5703 5702 5701 5701 5700 5700 5699 5699 5698 5698 5698 5699 5699 5699 5698 5698 5698 5698 5698 5698 5698 5698 5698 5698 5698 5698 5698 5698
5714 5714 5713 5712 5711 5710 5709 5707 5705 5703 5701 5699 5698 5696 5695 5693 5693 5692 5691 5691 5690 5690 5689 5689 5689 5689 5689 5689 5689 5689 5689 5689 5689 5689 5689 5688 5688 5688 5688 5688 5688 5688 5688
5704 5703 5702 5701 5700 5699 5698 5697 5695 5693 5691 5690 5688 5687 5685 5684 5683 5682 5682 5681 5681 5681 5680 5680 5680 5680 5680 5680 5680 5680 5680 5680 5680 5680 5679 5679 5678 5678 5677 5677 5677 5677 5677
5694 5693 5692 5691 5689 5688 5687 5686 5684 5683 5681 5680 5678 5676 5675 5674 5673 5672 5672 5671 5671 5671 5671 5671 5671 5671 5671 5671 5671 5671 5671 5670 5670 5670 5669 5669 5668 5668 5667 5666 5666 5666 5666
5683 5682 5681 5680 5679 5678 5676 5675 5673 5672 5670 5669 5667 5666 5665 5664 5663 5662 5662 5662 5662 5662 5661 5661 5661 5661 5661 5661 5661 5661 5661 5661 5661 5660 5659 5659 5658 5657 5657 5656 5655 5655 5654
5672 5671 5670 5669 5668 5667 5665 5664 5662 5661 5660 5658 5657 5656 5655 5654 5653 5652 5652 5652 5652 5652 5651 5651 5651 5651 5651 5651 5652 5652 5652 5651 5651 5650 5650 5649 5648 5647 5646 5645 5644 5644 5643
5660 5659 5658 5657 5656 5655 5654 5653 5651 5650 5649 5648 5646 5645 5644 5643 5643 5642 5642 5642 5641 5641 5641 5641 5641 5642 5642 5642 5642 5641 5641 5641 5640 5640 5639 5638 5637 5636 5635 5634 5633 5633 5632
5648 5647 5646 5646 5645 5644 5643 5641 5640 5638 5637 5637 5636 5635 5634 5632 5632 5631 5631 5631 5631 5631 5631 5632 5632 5632 5632 5632 5632 5631 5631 5631 5630 5629 5628 5627 5627 5626 5625 5623 5622 5621 5620
5636 5635 5635 5634 5634 5633 5632 5630 5629 5628 5627 5626 5625 5624 5623 5622 5621 5621 5621 5621 5621 5621 5621 5621 5622 5622 5621 5621 5621 5620 5620 5620 5619 5618 5617 5616 5615 5614 5613 5612 5611 5610 5609